sat.trackr.live / text

‹ back to catalog

ONEWEB-0308

NORAD 49094 · 2021-075V

PAYLOAD ACTIVE UNKNOWN

§ Identity

Operator
Country
UK
Launch date
2021-08-21
Launch site
TYMSC
Launch vehicle
Mass (kg)
RCS (m²)

Purposes: comms

External: N2YO · Heavens-Above · Gunter

§ Orbital elements

Epoch: 2026-05-25T02:53:31.416864Z

Period
109.72 min
Inclination
87.8961°
Eccentricity
0.0001772
Mean motion
13.12440976 rev/d
Perigee alt
1,212.4 km
Apogee alt
1,215.1 km
Semi-major
7,591.9 km
B*
8.5154e-4
RAAN
355.2457°
Arg perigee
85.5347°
Mean anomaly
274.5983°
Rev number
23,153

§ Raw data

ONEWEB-03081 49094U 21075V   26145.12050251  .00000319  00000+0  85154-3 0  99932 49094  87.8961 355.2457 0001772  85.5347 274.5983 13.12440976231536

JSON: /api/v1/satellites/49094 · /tle

For live sub-satellite position, see the globe view (requires WebGL).

§ Visibility from observer

Set your observer location to see the next 7 days of passes ≥ 10°. The values pass through the URL so the page stays shareable.

No JS? Fill the form by hand. The geolocation button needs JavaScript.